Theta_e
294 295 295 295 295 296 298 298 299 298 297 297 296 295 293 293 293 296 297 298 301 302 300 301 301 302 302 303 304 302 301 301 301 303 304 304 306 304 306 306 305 304 305 305 305 306 308 299 301 302 297 295 294 292
295 295 295 295 297 298 298 299 297 297 295 293 294 293 293 294 297 297 299 298 298 301 300 299 299 299 300 300 302 300 302 301 303 304 303 304 305 305 306 306 304 306 305 308 304 304 297 296 295 294 294 294 292 291
294 295 296 297 298 298 298 297 296 294 292 294 295 296 297 297 297 297 300 298 299 300 300 300 299 298 297 297 300 300 300 300 300 303 305 305 306 305 306 306 304 303 302 303 303 299 296 294 293 293 293 292 291 290
293 295 295 297 297 297 297 296 294 292 294 295 295 296 296 296 297 296 299 299 300 300 301 298 298 298 298 298 299 301 300 300 300 302 304 306 305 305 306 305 306 304 303 302 299 297 296 294 293 292 291 289 288 288
294 295 297 296 296 296 295 294 293 293 296 296 295 295 295 294 295 298 298 298 300 301 301 298 298 298 298 299 299 299 299 299 299 301 304 304 304 304 304 304 304 302 303 303 305 299 299 295 292 291 290 289 289 288
294 295 296 295 295 295 293 291 292 294 295 295 295 294 294 294 296 297 297 296 298 299 298 301 298 299 299 299 300 300 300 300 300 301 301 301 302 303 305 304 299 299 299 299 298 297 295 293 292 291 290 289 289 288
295 296 296 296 296 295 292 292 293 293 294 294 295 295 296 296 297 298 299 298 298 300 300 299 299 299 299 300 300 300 300 300 301 300 300 300 301 302 304 304 298 298 296 296 295 294 293 292 291 291 290 289 288 287
296 296 296 296 295 294 292 292 292 293 295 295 295 295 295 295 295 297 296 296 297 300 301 301 300 300 299 300 301 300 301 301 300 301 300 301 300 301 303 300 297 296 295 295 295 296 294 292 291 290 289 288 288 287
296 296 297 296 295 293 292 292 292 292 295 294 294 294 296 297 298 296 295 296 295 300 301 301 301 301 299 300 300 300 301 302 300 302 301 300 302 302 302 298 297 296 295 295 295 294 293 292 290 289 289 289 288 287
296 296 296 295 295 294 292 292 291 293 294 294 294 296 297 296 294 294 295 299 299 298 300 302 301 300 300 301 301 301 300 301 301 301 300 301 301 300 299 298 297 295 296 295 294 293 292 291 291 290 290 289 288 287
296 295 295 294 294 293 292 292 292 293 293 294 295 296 295 294 297 297 298 299 298 299 300 300 300 301 300 302 302 300 301 301 301 302 301 301 300 299 297 297 297 296 295 294 295 294 293 292 291 290 289 288 287 286
295 295 294 294 294 293 292 293 293 293 293 294 295 295 294 296 297 298 298 298 299 299 299 301 301 300 300 300 301 299 300 301 302 301 300 300 300 297 296 296 295 294 294 294 294 293 293 292 290 289 287 286 284 284
294 294 294 294 294 292 292 291 292 292 293 294 296 295 297 296 298 299 298 299 300 299 299 300 302 300 300 300 300 300 300 302 301 301 302 301 296 295 295 295 293 293 293 293 293 292 291 289 288 287 285 285 285 285
294 293 293 294 292 292 291 291 291 293 295 296 296 295 298 298 298 298 300 301 297 298 300 300 299 301 300 301 300 299 300 300 301 302 303 300 295 293 294 294 292 291 291 291 290 289 288 288 287 286 286 285 285 284
293 293 293 292 292 291 291 291 292 294 296 295 296 297 297 295 296 296 296 296 296 299 299 300 300 300 300 298 298 298 299 300 302 304 301 297 293 291 291 290 289 289 289 288 289 289 289 288 287 286 285 284 283 281
293 293 293 292 291 291 292 291 292 294 295 295 295 297 297 298 297 297 297 296 297 299 300 300 300 301 300 300 299 299 301 302 303 298 294 293 291 290 289 288 289 289 288 288 288 288 287 286 285 285 284 282 279 280
293 293 293 292 291 291 291 293 294 294 294 295 296 294 297 297 297 296 298 298 299 299 300 299 299 299 299 300 300 300 302 300 295 293 292 291 290 288 288 289 288 288 287 287 287 286 285 284 284 283 280 279 279 279
293 293 292 292 291 291 291 294 294 294 294 295 296 294 295 295 294 294 294 296 298 298 298 299 299 298 299 300 302 301 296 292 291 291 290 289 288 288 288 288 287 286 286 286 285 284 284 283 280 280 279 279 279 278
293 292 292 291 291 293 293 294 294 293 294 294 294 294 294 293 293 294 294 295 296 297 297 297 297 299 300 301 300 295 294 294 292 289 288 288 288 288 287 286 285 284 284 283 283 282 281 281 282 281 280 280 281 280
292 292 292 291 292 293 293 294 293 293 294 293 293 293 293 293 294 293 295 295 296 297 297 298 299 299 299 297 297 297 295 294 291 290 287 286 287 287 287 286 284 282 282 282 282 281 281 282 282 281 281 282 282 281
292 291 291 292 294 293 293 293 293 293 292 293 292 292 293 292 293 294 295 294 295 296 297 297 297 296 295 295 294 294 293 292 294 294 291 287 285 286 284 285 283 283 284 283 282 282 282 283 282 282 281 281 281 279
292 291 292 291 293 293 293 293 293 292 292 292 292 293 293 293 293 294 293 294 295 295 296 296 296 296 295 294 294 293 293 292 292 291 290 288 286 286 285 285 284 284 284 284 283 283 284 283 282 281 281 279 279 278
292 292 292 292 292 293 292 293 293 293 294 293 292 293 294 293 293 292 293 293 294 293 293 293 292 293 294 294 293 292 292 290 291 290 288 288 288 286 286 284 285 284 284 284 284 283 283 282 281 281 279 278 277 276
291 291 291 292 293 292 292 293 293 293 292 293 294 294 294 293 291 292 294 295 294 292 291 291 291 291 291 292 292 291 291 290 290 288 288 288 287 285 285 285 284 284 284 284 283 283 282 281 280 279 279 278 278 277
292 291 292 292 292 293 294 293 293 294 294 293 293 294 294 292 294 294 295 296 293 292 290 289 290 290 292 292 291 289 290 289 289 289 287 287 287 285 284 284 284 284 284 283 283 282 281 280 280 279 278 278 277 276
292 291 293 293 293 294 294 294 294 293 294 294 294 293 293 294 294 296 296 294 293 291 289 289 290 289 290 290 290 289 288 288 287 287 286 286 286 285 285 284 283 283 282 283 282 281 280 280 279 278 278 277 276 275
292 293 292 291 293 293 293 293 293 294 294 295 295 293 293 295 296 296 294 291 291 289 288 288 288 289 290 288 288 288 288 287 286 286 284 284 284 284 284 284 283 283 282 282 282 281 280 279 278 277 276 276 275 273
292 291 293 292 292 293 294 294 294 294 295 294 294 294 295 296 297 295 293 292 290 289 289 288 288 288 288 287 288 288 288 287 286 285 284 283 283 283 283 283 284 283 282 282 281 281 281 280 278 277 276 275 274 273
291 291 292 292 293 293 294 295 295 294 294 294 295 296 296 293 292 292 292 291 291 290 289 288 288 288 287 287 287 287 286 286 285 283 283 282 282 282 282 282 282 282 282 282 282 281 280 278 277 276 275 274 273 272
291 291 292 292 293 294 294 293 293 291 290 291 292 292 291 291 292 291 291 291 290 290 289 288 288 287 287 287 287 286 286 285 283 284 285 284 283 282 282 282 282 282 282 282 281 279 278 277 276 274 274 273 272 272
290 290 291 292 293 291 288 289 289 290 289 289 289 290 293 291 291 291 291 291 290 289 288 288 288 287 286 286 286 285 285 285 284 284 284 283 283 283 282 282 282 281 280 280 279 278 276 274 274 274 273 272 272 271
289 290 291 292 292 286 287 287 289 289 289 289 291 287 288 289 291 289 290 290 289 288 287 286 286 286 286 286 285 284 285 285 284 284 283 284 283 283 282 282 282 281 280 280 277 275 274 274 274 273 272 272 271 270
289 289 289 289 290 289 287 288 289 290 288 289 289 287 288 288 291 288 288 288 287 285 283 283 283 284 285 285 285 285 284 284 284 284 283 283 283 283 282 282 281 280 280 276 274 274 274 273 273 272 272 271 270 270
Wind_Speed
8 9 10 15 14 10 24 26 30 30 22 23 23 27 28 25 23 20 15 7 5 2 6 5 3 7 5 7 6 13 7 3 6 7 5 3 3 3 4 3 5 7 7 5 4 4 3 10 1 2 3 5 4 8
6 8 11 10 13 23 25 30 24 24 23 24 23 23 22 23 23 23 5 9 6 1 7 10 10 7 5 3 7 16 2 12 4 5 2 3 3 3 7 6 2 2 2 2 4 3 5 8 9 4 4 6 6 8
8 8 9 19 27 25 29 27 25 23 23 25 20 20 23 24 19 13 3 13 10 15 14 9 6 9 6 6 9 7 4 5 4 2 1 0 2 5 5 4 5 3 5 3 6 6 6 7 8 8 8 9 9 9
7 4 7 24 25 23 23 24 23 24 26 25 22 21 20 19 17 12 10 17 8 7 5 7 6 7 8 5 5 2 11 7 9 6 2 2 2 2 3 4 1 2 8 7 4 7 9 7 8 9 10 10 11 11
7 9 19 25 25 24 23 23 25 26 23 21 20 19 19 19 18 13 16 17 11 2 6 11 12 11 9 10 12 11 9 8 8 4 3 2 4 3 3 2 4 2 4 3 2 15 7 13 11 10 10 10 10 10
8 12 28 27 28 24 23 25 26 24 20 16 15 12 16 19 18 17 6 7 13 20 7 4 6 6 8 9 10 8 6 5 3 3 3 4 3 2 3 2 2 3 4 6 5 11 13 16 13 11 12 11 10 10
11 31 32 31 27 26 26 26 24 24 20 18 18 20 21 22 15 12 6 13 18 12 5 6 6 4 4 3 4 5 6 4 4 3 2 2 5 3 1 3 9 7 9 14 18 21 15 15 10 13 13 12 12 10
35 36 33 31 28 27 26 25 23 22 22 19 16 15 14 13 10 6 18 19 12 6 4 3 3 6 3 3 4 2 2 2 4 2 2 1 4 2 2 10 13 13 15 17 13 2 15 17 17 15 14 13 12 11
38 34 31 31 31 28 26 25 24 23 21 20 19 18 13 7 4 6 14 12 6 3 3 3 7 4 4 4 2 3 1 2 1 1 2 2 3 3 4 16 17 18 13 15 11 16 19 18 16 15 13 12 11 11
36 32 28 28 27 29 25 24 24 24 23 20 11 4 5 5 22 16 6 2 2 2 2 2 6 4 7 5 2 3 1 1 3 2 3 2 1 6 4 15 16 16 12 16 18 19 18 16 15 14 12 11 11 11
35 34 31 31 29 27 26 26 26 25 20 6 3 4 13 15 5 2 2 2 3 3 4 5 10 8 8 3 3 2 2 1 3 3 3 4 3 7 9 14 15 15 16 15 14 15 15 14 14 14 13 12 13 13
35 33 30 28 27 28 27 25 23 12 7 4 9 14 7 2 2 3 2 2 3 3 5 8 10 10 6 2 3 2 2 2 1 3 2 2 4 12 14 15 16 17 17 14 13 15 13 14 13 13 14 15 15 15
32 30 28 24 27 27 23 20 13 9 17 15 5 3 2 1 2 3 5 3 4 5 6 11 6 4 5 3 3 2 2 1 2 2 2 3 11 14 16 16 17 17 14 13 14 16 16 15 14 15 15 15 15 15
30 27 25 25 29 25 20 14 16 16 4 3 2 3 2 3 2 1 3 5 5 7 14 13 5 3 2 2 1 2 2 2 3 3 2 5 14 15 15 15 16 16 16 18 19 19 18 17 17 14 14 16 15 15
29 28 27 29 24 19 17 15 7 5 4 4 3 3 3 3 5 6 8 9 5 10 12 9 4 4 2 2 2 1 2 3 3 2 2 9 16 17 16 16 16 16 18 18 18 18 16 15 16 17 17 17 16 14
29 27 23 21 19 19 16 10 8 6 4 3 4 3 6 8 6 10 14 12 7 8 7 4 2 3 2 3 3 3 2 2 3 2 5 12 16 15 15 15 14 15 15 16 17 17 17 17 18 20 19 17 15 12
21 25 22 18 15 13 10 5 4 5 4 2 4 8 9 11 9 7 8 7 5 5 2 1 2 1 2 2 2 2 2 3 4 5 6 11 15 16 16 16 15 16 16 16 17 17 18 20 20 19 18 16 14 12
22 25 20 16 12 9 6 5 4 4 4 5 5 7 9 8 8 5 4 4 2 2 1 2 1 2 2 3 2 2 4 6 6 7 9 13 15 15 14 14 15 15 16 16 17 19 20 21 18 14 15 14 12 10
24 23 18 13 6 3 3 4 4 4 6 6 7 6 6 6 6 4 3 2 2 1 2 1 1 2 1 3 3 3 6 5 8 9 10 11 13 14 14 14 14 14 15 17 18 18 19 15 12 13 13 12 9 8
24 21 15 7 5 3 4 4 4 5 3 4 5 5 4 3 3 3 3 2 2 2 2 1 1 3 3 4 4 5 6 8 12 12 11 11 13 14 13 12 12 14 15 16 15 16 15 13 13 12 11 10 8 7
18 15 8 6 7 7 4 3 5 4 5 3 5 3 3 3 2 3 2 2 3 2 1 1 1 3 3 3 4 4 6 9 8 5 11 14 14 13 13 12 14 15 16 17 16 16 15 13 12 12 12 10 10 8
14 11 6 7 5 4 5 5 5 4 3 5 4 0 3 2 2 2 1 3 3 3 2 1 2 3 3 3 2 3 5 8 8 8 11 13 16 15 15 15 16 17 16 16 16 16 15 13 13 12 13 11 8 7
11 5 4 5 4 4 3 2 3 2 2 4 2 2 1 1 1 0 2 3 3 7 5 3 3 4 4 5 4 4 5 6 5 5 9 10 11 13 14 15 16 18 17 16 16 17 16 15 16 14 12 10 8 6
7 2 3 3 4 3 1 2 2 3 3 2 2 1 1 0 1 1 2 2 2 3 2 5 5 4 4 6 4 4 5 6 6 7 8 10 11 12 13 14 15 17 15 16 17 18 17 15 16 13 12 10 8 7
1 3 2 3 2 2 2 3 1 2 2 2 1 1 1 2 1 1 2 1 2 2 3 4 6 6 5 6 6 5 6 6 6 6 7 8 10 12 12 13 14 17 17 20 20 19 16 16 14 13 11 10 8 8
1 1 2 1 2 1 2 2 3 3 2 2 2 2 1 1 2 3 0 1 1 1 3 5 6 6 7 6 5 5 6 7 6 6 6 9 11 13 15 16 17 16 17 18 19 18 17 15 15 13 11 11 10 8
2 2 2 1 1 2 1 1 2 2 3 3 2 3 2 2 2 1 1 1 1 2 3 7 7 7 5 6 9 8 7 9 9 8 7 9 10 11 14 16 16 15 19 19 17 16 15 15 14 13 10 9 8 6
1 4 2 4 3 3 1 2 3 3 3 2 3 4 2 2 1 2 1 4 1 2 3 5 6 6 6 7 8 7 8 8 9 8 10 13 17 16 16 15 15 13 17 18 16 14 14 13 13 12 11 9 8 7
3 3 5 4 3 3 4 3 2 3 1 4 2 2 2 1 3 4 3 3 2 2 3 4 5 5 5 6 7 7 8 9 9 10 10 10 13 15 16 15 16 16 18 17 14 13 13 13 12 11 10 9 8 7
4 7 4 4 3 4 3 3 1 4 4 5 3 2 2 3 4 5 7 7 6 5 5 6 6 6 6 7 8 9 10 10 9 8 9 11 12 16 17 17 17 16 17 16 15 14 13 11 11 10 9 8 7 6
5 7 4 5 3 1 3 4 5 4 4 3 7 6 5 5 7 10 12 13 12 11 10 9 9 9 9 10 9 10 12 12 12 13 13 13 11 15 17 17 17 16 15 13 12 12 12 13 12 10 9 7 6 5
6 6 5 4 3 2 2 1 2 3 3 3 4 4 3 3 4 6 8 11 14 13 11 10 10 11 11 11 11 12 11 12 14 13 11 9 13 16 18 18 16 15 14 13 12 13 13 11 10 9 8 6 5 4
4 4 3 2 3 3 2 3 3 2 4 3 3 3 4 3 4 6 7 9 11 12 11 10 13 14 12 13 13 13 13 13 14 13 12 10 10 14 17 18 17 15 14 13 14 13 12 10 9 7 6 5 5 4
Wind_Direction
275 244 251 269 260 232 152 156 155 159 171 175 179 177 177 185 188 205 217 218 219 148 70 80 81 122 153 190 164 144 144 201 175 202 207 174 222 175 127 2 160 182 185 198 225 232 200 356 145 277 25 61 70 64
294 227 265 277 184 160 156 160 159 160 162 168 164 166 168 178 187 194 209 192 173 288 122 98 89 79 85 84 109 175 20 157 142 228 247 134 184 144 159 165 157 221 15 59 8 56 90 48 78 74 62 98 89 93
262 273 280 163 154 159 155 153 154 158 160 158 164 164 166 177 176 181 171 155 130 123 117 114 50 45 74 147 151 183 154 149 172 193 111 35 141 175 187 117 139 154 155 97 182 133 118 102 93 84 95 108 103 98
268 260 280 150 153 156 152 151 154 158 158 160 164 170 173 168 176 182 172 164 173 134 113 77 74 64 43 95 135 117 133 127 140 171 160 177 129 305 74 111 82 103 155 133 79 132 124 114 116 118 111 111 111 106
242 235 163 151 157 156 156 158 158 157 157 157 158 165 173 182 178 167 181 183 167 212 121 119 95 64 80 90 95 102 115 137 160 149 148 120 96 111 90 154 126 193 143 210 132 158 85 136 137 136 129 123 117 115
221 185 158 159 157 157 153 153 156 156 157 157 164 177 172 166 156 153 147 170 134 124 119 128 109 96 96 92 90 92 91 91 100 101 105 90 103 191 157 122 127 121 126 148 121 123 127 133 133 137 134 133 126 125
202 167 159 161 157 153 149 150 153 159 159 157 157 149 148 152 152 176 171 155 148 115 103 131 135 152 131 119 83 73 66 67 47 102 71 104 146 274 129 162 159 137 118 121 127 124 123 140 141 136 135 135 130 127
152 161 162 158 156 150 149 151 151 150 147 147 148 150 147 151 137 96 141 147 141 99 110 123 97 152 198 174 114 38 91 96 36 71 138 204 142 245 168 131 148 136 135 135 143 125 143 137 134 137 140 140 138 137
156 162 160 155 155 150 150 151 149 147 144 137 130 132 131 118 104 128 132 136 126 92 111 157 155 148 166 107 130 130 323 104 28 207 183 251 146 220 122 158 163 158 156 149 134 136 140 140 143 144 149 153 148 150
155 152 152 146 147 142 147 148 150 152 145 142 123 125 91 120 128 121 101 89 82 69 67 116 102 133 145 162 114 134 292 169 191 128 101 273 195 110 137 164 168 168 159 159 149 152 151 150 152 153 156 159 160 155
149 146 148 149 146 144 143 146 147 146 145 133 94 78 131 126 102 100 104 167 154 125 115 130 142 144 153 162 137 331 150 185 238 128 248 191 208 156 150 159 166 163 157 161 163 162 162 160 158 157 156 154 152 148
145 147 147 149 153 149 143 145 144 136 155 158 127 121 107 103 124 114 110 142 211 122 158 151 128 128 127 138 103 201 196 220 263 159 237 242 108 145 143 142 135 145 149 150 161 162 161 157 157 158 154 153 158 167
141 141 140 141 147 140 143 145 137 139 127 112 96 98 199 50 139 196 151 157 138 135 166 143 129 122 140 101 68 152 186 180 181 225 226 56 141 153 151 137 144 151 151 145 140 144 146 147 157 159 161 168 159 158
136 134 136 134 137 138 139 137 139 142 97 101 98 90 1 118 100 62 52 80 80 144 140 121 98 87 92 78 220 183 79 234 250 246 96 130 155 154 152 151 148 148 158 157 159 163 167 169 169 170 167 163 160 157
133 132 128 132 135 134 134 135 120 124 72 62 36 59 67 88 82 89 102 112 100 133 132 129 111 113 106 120 164 104 179 230 236 29 73 121 146 152 148 150 153 157 164 167 173 173 171 169 170 164 160 162 162 160
132 129 132 136 136 135 132 95 87 63 61 62 44 126 135 123 114 102 105 117 124 130 126 113 151 129 163 140 165 203 260 261 74 63 105 142 147 151 150 161 161 163 167 168 168 168 168 169 167 164 162 160 159 158
132 138 143 139 136 141 144 81 65 60 66 49 75 43 64 72 77 67 101 87 130 135 98 150 133 108 147 211 184 178 332 52 90 104 126 152 152 153 162 166 168 169 168 167 168 168 166 166 163 161 160 158 158 159
134 137 136 136 122 113 101 53 77 73 70 64 101 61 71 84 103 82 63 62 126 105 133 67 292 134 183 181 140 97 110 105 97 123 128 142 158 160 163 168 166 167 169 170 170 167 164 159 155 155 161 156 153 153
132 139 142 137 108 84 67 51 45 86 62 78 91 91 90 95 90 80 65 64 86 119 132 137 134 198 97 51 72 102 132 140 141 134 132 146 157 161 164 165 167 165 167 166 162 160 159 153 159 157 157 154 158 156
138 141 140 118 77 62 72 55 59 80 86 95 101 95 113 108 105 109 84 158 190 203 205 209 256 46 48 86 78 98 140 144 144 140 146 156 169 170 174 168 161 161 156 156 155 157 157 158 158 160 158 158 158 161
138 136 119 75 59 65 79 68 65 79 109 85 117 118 98 105 138 166 165 163 218 241 219 243 194 222 195 143 120 119 142 144 157 169 176 169 172 168 169 163 165 161 164 164 165 166 164 165 163 169 163 163 166 157
137 129 68 46 66 68 66 46 97 99 82 123 129 58 114 130 137 152 138 202 236 230 223 214 185 211 174 152 139 127 167 164 173 153 160 172 165 172 173 173 169 171 174 175 172 172 169 171 171 168 177 170 153 160
128 93 41 34 64 58 75 40 81 73 109 136 134 128 126 127 95 183 245 234 246 235 216 206 219 171 181 191 175 160 162 150 144 154 158 161 170 176 175 177 177 176 173 176 178 174 172 173 170 178 177 160 164 170
110 61 44 44 45 87 82 78 104 106 110 143 149 142 103 142 137 233 256 245 155 239 230 220 188 175 186 197 184 198 188 159 164 162 158 164 165 170 174 174 179 178 175 174 176 176 182 169 176 176 168 168 170 166
62 25 51 72 59 113 134 135 164 125 116 160 135 170 165 180 263 255 253 141 199 229 211 193 188 192 199 187 172 186 187 168 172 176 170 171 169 165 168 172 179 177 179 177 177 183 173 179 173 180 173 174 175 174
83 40 4 109 140 212 138 148 170 183 148 174 193 81 174 240 251 247 121 96 288 203 222 201 190 190 200 197 190 192 194 191 166 169 174 174 178 176 173 171 170 174 182 181 180 175 180 175 183 177 175 185 187 177
162 143 151 140 148 155 149 161 138 178 190 199 172 179 198 239 236 120 64 4 181 216 188 181 174 182 187 178 187 192 186 180 165 180 171 155 168 176 183 182 181 184 177 183 181 184 180 181 183 180 185 190 194 193
150 180 183 178 190 222 225 195 193 206 205 178 170 194 226 234 34 113 138 351 301 167 159 169 177 167 170 189 201 199 198 190 190 187 175 174 174 173 174 177 179 193 176 179 180 187 189 191 186 188 189 198 202 206
198 185 173 189 192 195 229 216 223 188 173 181 212 200 202 207 209 217 231 234 272 214 189 192 198 205 199 197 195 196 190 188 181 170 165 161 167 173 177 178 180 180 182 186 191 190 189 191 193 195 203 204 210 220
189 176 199 184 206 215 181 205 155 230 200 210 225 280 261 260 253 251 250 253 250 246 230 219 223 208 206 198 197 192 188 181 175 178 184 182 180 184 178 179 181 183 187 192 196 195 197 202 200 197 199 203 211 226
158 179 202 206 235 158 230 247 246 255 255 248 249 243 265 265 286 268 253 250 245 242 238 233 225 214 212 202 202 197 200 197 189 179 183 195 197 188 185 184 186 189 190 190 191 192 190 188 190 193 198 209 218 228
179 193 195 210 198 264 264 238 233 237 223 236 234 234 269 264 257 262 247 241 236 235 233 221 225 225 216 209 200 203 203 203 193 189 190 195 196 194 195 196 195 192 191 188 188 184 184 188 192 196 203 209 215 220
179 179 199 210 199 199 200 220 224 246 229 236 231 236 242 258 262 255 254 243 228 215 209 215 213 218 216 208 207 203 197 197 192 194 196 198 198 199 199 196 193 190 187 186 184 183 185 189 194 201 204 207 209 208